Weather History for Youngstown, OH

Change the Weather History Date:

Wednesday, October 9, 2013

  Actual Average Record
Temperature  
Mean Temperature 54 °F 53 °F  
Max Temperature 68 °F 63 °F 88 °F (1939)
Min Temperature 40 °F 43 °F 28 °F (2012)
Degree Days  
Heating Degree Days 11 12  
Month to date heating degree days 34 99  
Since 1 July heating degree days 223 282  
Cooling Degree Days 0 0  
Month to date cooling degree days 21 3  
Year to date cooling degree days 630 541  
Growing Degree Days 4 (Base 50)    
Moisture  
Dew Point 42 °F    
Average Humidity 67    
Maximum Humidity 96    
Minimum Humidity 37    
Precipitation  
Precipitation 0.00 in 0.09 in 1.00 in (1990)
Month to date precipitation 0.77 0.87  
Year to date precipitation 30.20 30.84  
Snow  
Snow 0.00 in 0.00 in - ()
Month to date snowfall 0.0 0.1  
Since 1 July snowfall 0.0 0.1  
Since 1 September snowfall 0.0 0.1  
Snow Depth 0.00 in    
Sea Level Pressure  
Sea Level Pressure 30.30 in    
Wind  
Wind Speed 6 mph (ESE)    
Max Wind Speed 13 mph    
Max Gust Speed 16 mph    
Visibility 10 miles    
Events      
T = Trace of Precipitation, MM = Missing Value Source: NWS Daily Summary

Daily Weather History Graph

Daily Weather History Graph

Search for Another Location

Airport:

Trip Planner

Search our weather history database for the weather conditions in past years. The results will help you decide how hot, cold, wet, or windy it might be!

Date:

Astronomy

Oct. 09, 2013 Rise Set
Actual Time 7:28 AM EDT 6:50 PM EDT
Civil Twilight 7:00 AM EDT 7:18 PM EDT
Nautical Twilight 6:28 AM EDT 7:50 PM EDT
Astronomical Twilight 5:56 AM EDT 8:22 PM EDT
Moon 12:24 PM EDT (10/9) 10:21 PM EDT (10/9)
Length of Visible Light 12h 18m
Length of Day
11h 22m
Waxing Crescent, 25% of the Moon is Illuminated
Oct 9
Waxing Crescent
Oct 11
First Quarter
Oct 18
Full
Oct 26
Last Quarter
Nov 3
New

Hourly Weather History & Observations

Time (EDT) Temp. Windchill Dew Point Humidity Pressure Visibility Wind Dir Wind Speed Gust Speed Precip Events Conditions
12:51 AM 43.0 °F 40.3 °F 41.0 °F 93% 30.31 in 10.0 mi East 4.6 mph - N/A   Clear
1:51 AM 44.1 °F 40.8 °F 42.1 °F 93% 30.30 in 10.0 mi East 5.8 mph - N/A   Clear
2:51 AM 44.1 °F 40.1 °F 41.0 °F 89% 30.30 in 10.0 mi East 6.9 mph - N/A   Clear
3:51 AM 44.1 °F 40.8 °F 41.0 °F 89% 30.29 in 10.0 mi East 5.8 mph - N/A   Clear
4:51 AM 43.0 °F 38.8 °F 39.9 °F 89% 30.30 in 10.0 mi East 6.9 mph - N/A   Clear
5:51 AM 43.0 °F 38.8 °F 39.9 °F 89% 30.31 in 10.0 mi East 6.9 mph - N/A   Clear
6:51 AM 43.0 °F 38.8 °F 39.9 °F 89% 30.33 in 10.0 mi East 6.9 mph - N/A   Partly Cloudy
7:51 AM 42.1 °F 38.4 °F 39.0 °F 89% 30.34 in 10.0 mi East 5.8 mph - N/A   Partly Cloudy
8:51 AM 46.9 °F - 42.1 °F 83% 30.35 in 10.0 mi East 8.1 mph - N/A   Partly Cloudy
9:51 AM 53.1 °F - 44.1 °F 71% 30.35 in 10.0 mi East 6.9 mph - N/A   Partly Cloudy
10:51 AM 57.0 °F - 44.1 °F 62% 30.36 in 10.0 mi East 10.4 mph - N/A   Partly Cloudy
11:51 AM 60.1 °F - 44.1 °F 55% 30.34 in 10.0 mi SE 9.2 mph - N/A   Partly Cloudy
12:51 PM 63.0 °F - 43.0 °F 48% 30.33 in 10.0 mi Variable 3.5 mph - N/A   Partly Cloudy
1:51 PM 64.9 °F - 41.0 °F 42% 30.30 in 10.0 mi ESE 4.6 mph - N/A   Partly Cloudy
2:51 PM 66.9 °F - 41.0 °F 39% 30.28 in 10.0 mi ESE 8.1 mph - N/A   Scattered Clouds
3:51 PM 68.0 °F - 41.0 °F 37% 30.27 in 10.0 mi ESE 6.9 mph - N/A   Scattered Clouds
4:51 PM 66.9 °F - 39.0 °F 36% 30.26 in 10.0 mi ESE 9.2 mph - N/A   Scattered Clouds
5:51 PM 64.9 °F - 41.0 °F 42% 30.26 in 10.0 mi ESE 8.1 mph - N/A   Scattered Clouds
6:51 PM 57.9 °F - 45.0 °F 62% 30.26 in 10.0 mi Calm Calm - N/A   Mostly Cloudy
7:51 PM 55.0 °F - 45.0 °F 69% 30.27 in 10.0 mi ESE 5.8 mph - N/A   Mostly Cloudy
8:51 PM 54.0 °F - 43.0 °F 66% 30.27 in 10.0 mi ESE 4.6 mph - N/A   Mostly Cloudy
9:51 PM 51.1 °F - 44.1 °F 77% 30.27 in 10.0 mi ESE 3.5 mph - N/A   Scattered Clouds
10:51 PM 51.1 °F - 41.0 °F 68% 30.27 in 10.0 mi East 4.6 mph - N/A   Mostly Cloudy
11:51 PM 46.0 °F 44.8 °F 42.1 °F 86% 30.27 in 10.0 mi East 3.5 mph - N/A   Mostly Cloudy